Home   Weather   Mongomo   Past weeks

Flag for Equatorial Guinea Past Weather in Mongomo, Equatorial Guinea — Yesterday and Last 2 Weeks

Now
73 °F

Partly sunny.


Feels Like: 72 °F
Forecast: 69 / 84 °F
Wind: 6 mph from West

Location: Yaounde Airport

Current Time: Jan 23, 2017 at 7:47:33 am

Latest Report: Jan 23, 2017 at 7:00 am


Visibility: 4 mi

Pressure: 30.01 "Hg (27.88 "Hg at 638m altitude)

Humidity: 89%

Dew Point: 70 °F

Location of MongomoLocation

Past Weather in Mongomo — Graph

°F

Mongomo Temperature Yesterday

Maximum temperature yesterday: 90 °F (at 3:00 pm)
Minimum temperature yesterday: 72 °F (at 4:00 am)
Average temperature yesterday: 79 °F

High & Low Weather Summary for the Past Weeks

 TemperatureHumidityPressure
High90 °F (Jan 8, 4:00 pm)100% (Jan 8, 7:00 am)30.07 "Hg (Jan 8, 7:00 am)
Low68 °F (Jan 8, 7:00 am)26% (Jan 9, 2:00 pm)29.83 "Hg (Jan 14, 3:00 pm)
Average77 °F79%29.95 "Hg
* Reported Jan 8 6:00 am — Jan 23 6:00 am, Mongomo, Weather by CustomWeather, © 2017

Note: Actual official high and low records may vary slightly from our data, if they occured in-between our weather recording intervals... More about our weather records

Advertising

Mongomo Weather History for the Previous 24 Hours

Scroll right to see more
 ConditionsComfort  
Time TempWeatherWind HumidityBarometerVisibility
6:00 am
Mon, Jan 23
72 °FPassing clouds.5 mph94%29.98 "Hg4 mi
5:00 am73 °FPassing clouds.5 mph89%29.98 "Hg4 mi
4:00 am73 °FPassing clouds.7 mph89%29.95 "Hg4 mi
3:00 am73 °FPassing clouds.6 mph89%29.95 "Hg4 mi
2:00 am73 °FPassing clouds.7 mph89%29.95 "Hg4 mi
1:00 am73 °FPassing clouds.7 mph89%29.98 "Hg4 mi
12:00 am73 °FPassing clouds.6 mph89%29.98 "Hg4 mi
11:00 pm
Sun, Jan 22
75 °FPassing clouds.8 mph89%29.98 "Hg4 mi
10:00 pm75 °FPassing clouds.5 mph89%29.95 "Hg6 mi
9:00 pm75 °FPassing clouds.5 mph94%29.95 "Hg6 mi
8:00 pm77 °FPassing clouds.6 mph89%29.95 "Hg6 mi
7:00 pm79 °FPassing clouds.6 mph84%29.92 "Hg6 mi
6:00 pm82 °FPartly sunny.8 mph74%29.89 "Hg6 mi
5:00 pm86 °FScattered clouds.9 mph62%29.86 "Hg6 mi
4:00 pm90 °FPartly sunny.9 mph52%29.86 "Hg6 mi
3:00 pm90 °FPartly sunny.6 mph52%29.89 "Hg6 mi
2:00 pm88 °FPartly sunny.7 mph55%29.92 "Hg4 mi
1:00 pm86 °FPartly sunny.3 mph59%29.95 "Hg4 mi
12:00 pm86 °FPartly sunny.3 mph59%29.95 "Hg4 mi
11:00 am81 °FPartly sunny.7 mph70%30.01 "Hg4 mi
10:00 am79 °FPartly sunny.5 mph79%30.01 "Hg4 mi
9:00 am75 °FPartly sunny.6 mph89%30.01 "Hg4 mi
8:00 am73 °FPartly sunny.No wind94%30.01 "Hg4 mi
Weather by CustomWeather, © 2017

See weather overviewHow to use our weather pages